Time,TemperatureF,DewpointF,PressureIn,WindDirection,WindDirectionDegrees,WindSpeedMPH,WindSpeedGustMPH,Humidity,HourlyPrecipIn,Conditions,Clouds,dailyrainin,SoftwareType,DateUTC
2013-08-06 00:32:00,60.0,51.0,-100.00,SW,225,10.0,13.0,72,-99.99,,,-99.99,,2013-08-06 06:32:00,
2013-08-06 00:52:00,60.0,51.0,-100.00,SW,235,11.0,14.0,71,-99.99,,,-99.99,,2013-08-06 06:52:00,
2013-08-06 01:01:00,60.0,51.0,-100.00,WSW,245,11.0,14.0,70,-99.99,,,-99.99,,2013-08-06 07:01:00,
2013-08-06 01:12:00,60.0,51.0,-100.00,WSW,245,11.0,14.0,70,-99.99,,,-99.99,,2013-08-06 07:12:00,
2013-08-06 01:32:00,59.0,51.0,-100.00,WSW,240,11.0,13.0,72,-99.99,,,-99.99,,2013-08-06 07:32:00,
2013-08-06 01:53:00,60.0,51.0,-100.00,SW,230,10.0,14.0,73,-99.99,,,-99.99,,2013-08-06 07:53:00,
2013-08-06 02:01:00,60.0,51.0,-100.00,SW,225,11.0,17.0,73,-99.99,,,-99.99,,2013-08-06 08:01:00,
2013-08-06 02:11:00,60.0,51.0,-100.00,SW,225,11.0,17.0,73,-99.99,,,-99.99,,2013-08-06 08:11:00,
2013-08-06 02:33:00,60.0,51.0,-100.00,WSW,250,10.0,13.0,73,-99.99,,,-99.99,,2013-08-06 08:33:00,
2013-08-06 02:52:00,59.0,51.0,-100.00,WSW,240,9.0,12.0,74,-99.99,,,-99.99,,2013-08-06 08:52:00,
2013-08-06 03:11:00,59.0,51.0,-100.00,West,275,6.0,11.0,74,-99.99,,,-99.99,,2013-08-06 09:11:00,
2013-08-06 03:32:00,60.0,50.0,-100.00,West,270,5.0,9.0,71,-99.99,,,-99.99,,2013-08-06 09:32:00,
2013-08-06 03:52:00,58.0,50.0,-100.00,West,280,7.0,9.0,74,-99.99,,,-99.99,,2013-08-06 09:52:00,
2013-08-06 04:01:00,59.0,51.0,-100.00,West,280,9.0,13.0,73,-99.99,,,-99.99,,2013-08-06 10:01:00,
2013-08-06 04:11:00,59.0,51.0,-100.00,West,280,9.0,13.0,73,-99.99,,,-99.99,,2013-08-06 10:11:00,
2013-08-06 04:32:00,59.0,51.0,-100.00,West,280,11.0,12.0,74,-99.99,,,-99.99,,2013-08-06 10:32:00,
2013-08-06 05:11:00,59.0,51.0,-100.00,WNW,285,7.0,11.0,76,-99.99,,,-99.99,,2013-08-06 11:11:00,
2013-08-06 05:53:00,58.0,51.0,-100.00,WNW,290,9.0,11.0,77,-99.99,,,-99.99,,2013-08-06 11:53:00,
2013-08-06 06:01:00,58.0,51.0,-100.00,WNW,285,10.0,12.0,77,-99.99,,,-99.99,,2013-08-06 12:01:00,
2013-08-06 06:31:00,59.0,52.0,-100.00,WNW,285,11.0,14.0,77,-99.99,,,-99.99,,2013-08-06 12:31:00,
2013-08-06 06:52:00,59.0,52.0,-100.00,WNW,295,12.0,16.0,77,-99.99,,,-99.99,,2013-08-06 12:52:00,
2013-08-06 07:01:00,60.0,52.0,-100.00,WNW,295,12.0,-999.0,76,-99.99,,,-99.99,,2013-08-06 13:01:00,
2013-08-06 07:11:00,60.0,52.0,-100.00,WNW,295,12.0,-999.0,76,-99.99,,,-99.99,,2013-08-06 13:11:00,
2013-08-06 07:32:00,61.0,52.0,-100.00,WNW,290,13.0,16.0,74,-99.99,,,-99.99,,2013-08-06 13:32:00,
2013-08-06 07:53:00,62.0,52.0,-100.00,WNW,290,11.0,15.0,70,-99.99,,,-99.99,,2013-08-06 13:53:00,
2013-08-06 08:01:00,62.0,52.0,-100.00,WNW,295,12.0,15.0,69,-99.99,,,-99.99,,2013-08-06 14:01:00,
2013-08-06 08:11:00,62.0,52.0,-100.00,WNW,295,12.0,15.0,69,-99.99,,,-99.99,,2013-08-06 14:11:00,
2013-08-06 08:32:00,64.0,51.0,-100.00,West,280,12.0,16.0,62,-99.99,,,-99.99,,2013-08-06 14:32:00,
2013-08-06 09:02:00,67.0,49.0,-100.00,West,265,13.0,17.0,53,-99.99,,,-99.99,,2013-08-06 15:02:00,
2013-08-06 09:11:00,67.0,49.0,-100.00,West,265,13.0,17.0,53,-99.99,,,-99.99,,2013-08-06 15:11:00,
2013-08-06 09:33:00,68.0,48.0,-100.00,WNW,295,15.0,21.0,49,-99.99,,,-99.99,,2013-08-06 15:33:00,
2013-08-06 09:52:00,68.0,49.0,-100.00,WNW,285,12.0,17.0,50,-99.99,,,-99.99,,2013-08-06 15:52:00,
2013-08-06 10:02:00,67.0,49.0,-100.00,WNW,285,14.0,19.0,51,-99.99,,,-99.99,,2013-08-06 16:02:00,
2013-08-06 10:11:00,67.0,49.0,-100.00,WNW,285,14.0,19.0,51,-99.99,,,-99.99,,2013-08-06 16:11:00,
2013-08-06 10:32:00,67.0,49.0,-100.00,West,275,18.0,23.0,52,-99.99,,,-99.99,,2013-08-06 16:32:00,
2013-08-06 10:52:00,66.0,49.0,-100.00,WNW,300,16.0,25.0,53,-99.99,,,-99.99,,2013-08-06 16:52:00,
2013-08-06 11:02:00,67.0,50.0,-100.00,WNW,300,14.0,20.0,54,-99.99,,,-99.99,,2013-08-06 17:02:00,
2013-08-06 11:11:00,67.0,50.0,-100.00,WNW,300,14.0,20.0,54,-99.99,,,-99.99,,2013-08-06 17:11:00,
2013-08-06 11:32:00,69.0,49.0,-100.00,WNW,295,17.0,22.0,49,-99.99,,,-99.99,,2013-08-06 17:32:00,
2013-08-06 11:52:00,69.0,49.0,-100.00,NW,315,15.0,21.0,48,-99.99,,,-99.99,,2013-08-06 17:52:00,
2013-08-06 12:11:00,70.0,49.0,-100.00,WNW,300,17.0,27.0,47,-99.99,,,-99.99,,2013-08-06 18:11:00,
2013-08-06 12:32:00,68.0,49.0,-100.00,NW,320,17.0,24.0,51,-99.99,,,-99.99,,2013-08-06 18:32:00,
2013-08-06 13:32:00,69.0,49.0,-100.00,NW,325,17.0,23.0,47,-99.99,,,-99.99,,2013-08-06 19:32:00,
2013-08-06 13:52:00,69.0,48.0,-100.00,NW,305,21.0,28.0,45,-99.99,,,-99.99,,2013-08-06 19:52:00,
2013-08-06 14:01:00,70.0,47.0,-100.00,NW,310,19.0,26.0,44,-99.99,,,-99.99,,2013-08-06 20:01:00,
2013-08-06 14:11:00,70.0,47.0,-100.00,NW,310,19.0,26.0,44,-99.99,,,-99.99,,2013-08-06 20:11:00,
2013-08-06 15:01:00,72.0,46.0,-100.00,NNW,335,17.0,22.0,40,-99.99,,,-99.99,,2013-08-06 21:01:00,
2013-08-06 15:11:00,72.0,46.0,-100.00,NNW,335,17.0,22.0,40,-99.99,,,-99.99,,2013-08-06 21:11:00,
2013-08-06 16:11:00,74.0,46.0,-100.00,NNW,340,14.0,18.0,36,-99.99,,,-99.99,,2013-08-06 22:11:00,
2013-08-06 17:11:00,74.0,45.0,-100.00,NW,315,12.0,19.0,35,-99.99,,,-99.99,,2013-08-06 23:11:00,
2013-08-06 17:32:00,74.0,45.0,-100.00,NW,320,13.0,17.0,35,-99.99,,,-99.99,,2013-08-06 23:32:00,
2013-08-06 18:11:00,75.0,45.0,-100.00,WNW,295,9.0,15.0,34,-99.99,,,-99.99,,2013-08-07 00:11:00,
2013-08-06 18:32:00,74.0,45.0,-100.00,North,0,6.0,11.0,35,-99.99,,,-99.99,,2013-08-07 00:32:00,
2013-08-06 18:52:00,74.0,45.0,-100.00,NNW,340,6.0,9.0,35,-99.99,,,-99.99,,2013-08-07 00:52:00,
2013-08-06 19:01:00,75.0,46.0,-100.00,NW,325,4.0,7.0,35,-99.99,,,-99.99,,2013-08-07 01:01:00,
2013-08-06 19:11:00,75.0,46.0,-100.00,NW,325,4.0,7.0,35,-99.99,,,-99.99,,2013-08-07 01:11:00,
2013-08-06 19:32:00,74.0,46.0,-100.00,West,280,3.0,4.0,35,-99.99,,,-99.99,,2013-08-07 01:32:00,
2013-08-06 20:11:00,71.0,45.0,-100.00,SW,235,4.0,4.0,40,-99.99,,,-99.99,,2013-08-07 02:11:00,
2013-08-06 20:53:00,59.0,54.0,-100.00,North,0,12.0,18.0,83,-99.99,,,-99.99,,2013-08-07 02:53:00,
2013-08-06 21:01:00,59.0,54.0,-100.00,North,5,7.0,16.0,83,-99.99,,,-99.99,,2013-08-07 03:01:00,
2013-08-06 21:32:00,59.0,54.0,-100.00,ENE,70,2.0,6.0,82,-99.99,,,-99.99,,2013-08-07 03:32:00,
2013-08-06 21:52:00,58.0,53.0,-100.00,ESE,115,3.0,6.0,82,-99.99,,,-99.99,,2013-08-07 03:52:00,
2013-08-06 22:01:00,58.0,53.0,-100.00,SE,130,4.0,5.0,82,-99.99,,,-99.99,,2013-08-07 04:01:00,
2013-08-06 22:33:00,57.0,52.0,-100.00,SSW,205,1.0,6.0,82,-99.99,,,-99.99,,2013-08-07 04:33:00,
2013-08-06 23:02:00,57.0,52.0,-100.00,South,180,2.0,3.0,82,-99.99,,,-99.99,,2013-08-07 05:02:00,
2013-08-06 23:32:00,56.0,51.0,-100.00,WSW,255,4.0,4.0,82,-99.99,,,-99.99,,2013-08-07 05:32:00,